Weather in Buk

Poland     52°21′09″N   16°31′06″E
temp.,
°C
wind,
m/s
gust,
m/s
humid.,
%
clouds,
%
prec.,
mm/h
press.,
hPa
HPBL,
m
18 may, tue
tue1823:00+11wsw3487100 0.0 100554
02:00+9w4794100 0.0 1006143
05:00+8w4997100 0.0 1006246
08:00+11w5791100 0.0 1008394
11:00+14w5677100 0.6 1008968
14:00+14w7979100 2.2 10091035
17:00+14wnw687730 0.9 10101053
20:00+12wnw38865 1.4 1010267
19 may, wed
wed1923:00+8nw35935 0.0 101183
02:00+7w349517 0.0 101259
05:00+7wnw3496100 0.0 101267
08:00+11wnw358550 0.0 1013424
11:00+14wnw457466 1.3 10131092
14:00+13w557857 3.0 1013914
17:00+14nw5674100 2.4 10131004
20:00+11nw3586100 4.0 101488
20 may, thu
thu2023:00+8nnw338994 0.0 101540
02:00+7nnw229087 0.0 101617
05:00+6nw229081 0.0 101717
08:00+10wnw358585 0.0 1018298
11:00+14wnw45688 0.5 10181190
14:00+14wnw4674100 1.7 1018783
17:00+15nw586510 0.7 10191666
20:00+11nnw36805 0.7 1020128
21 may, fri
fri2123:00+8nw33845 0.0 102133
02:00+7w33901 0.0 102130
05:00+6sw339216 0.0 102045
08:00+10sw4681100 0.0 1019272
11:00+15ssw5564100 0.0 10181036
14:00+17s675350 0.0 10162108
17:00+17sse6962100 0.0 10131599
20:00+13s3877100 0.1 1012178
22 may, sat
sat2223:00+12sse41072100 0.0 1011216
02:00+13s61263100 0.0 1009294
05:00+10ssw51492100 0.9 1008540
08:00+12ssw71390100 0.9 1007666
11:00+14sw71378100 0.1 10081169
14:00+16wsw61067100 0.3 10091422
17:00+15wsw7106323 0.1 10101359
20:00+12sw4117397 0.1 1010303